星链-5661 (STARLINK-5661 )

导读

STARLINK-5661是美国太空探索技术公司(SpaceX)星链(Starlink)互联网卫星星座的一员,于2023年1月26日发射入轨,属于星链项目批次部署的卫星。星链星座旨在为全球提供低延迟、高速率的卫星互联网服务,该卫星承担着补充星座网络覆盖、提升全球通信服务能力的任务。

基本信息
目录编号:
55343
目录名称:
STARLINK-5661
国际标识:
2023-013N
轨道中心:
EARTH
卫星名称:
星链-5661
卫星全名:
星链-5661 (STARLINK-5661 )
卫星状态:
在轨 (已飞行1236 天)
发射日期:
2023-01-26 UTC
国别 :
美国 (US)
星等 :
--
轨道信息
数据来源 国际轨道数据
星历时间: 2026-06-14T21:34:14+0800
12小时前
查看轨道信息
半长轴: 6861.189km
偏心率: 0.0000573
轨道倾角: 42.999°
近地点辐角 292.210°
升交点赤经 115.936°
平近点角 67.869°
近地点: 482.658km
远地点: 483.446km
周期: 94.267分钟
每日圈数: 15.275792
详细信息
固有亮度:
5
最大亮度:
2.5
卫星平台:
Starlink v1.5
覆盖范围:
全球
运营商:
太空探索技术公司
运营商所在国:
美国
制造商(研发单位):
太空探索技术公司
制造商所在国:
美国
使用方式:
暂无
卫星简介
星链(Starlink)计划是由太空探索技术公司(SpaceX)提出的一个巨型低轨卫星互联网星座项目,计划在2019年至2024年间在太空搭建由约1.2万颗卫星组成的“星链”网络,其中1584颗将部署在地球上空550千米处的近地轨道,并从2020年开始工作。该卫星仍在工作。
2D轨道图
3D轨道图
轨道高度分析图
轨道倾角分析图
轨道综合分析图
查看轨道综合分析图